• In Netherlands
  • List of Countries
  • For 7 days
  • Water Temperature
  • Satellite Maps
  • Weather Map
  • Weather Widgets
  • user-avatar
    Login

    Hourly Weather Mazari Sharif

    Today, 29 April, Saturday

    Time Temperature Precipitation Wind Pressure Humidity
    00:00 +9°C° 0 mm 1 mps 660 mmHg 57%
    01:00 +8°C° 0 mm 1 mps 660 mmHg 58%
    02:00 +8°C° 0 mm 1 mps 659 mmHg 59%
    03:00 +8°C° 0 mm 1 mps 659 mmHg 61%
    04:00 +7°C° 0 mm 1 mps 659 mmHg 66%
    05:00 +8°C° 0 mm 1 mps 659 mmHg 61%
    06:00 +10°C° 0 mm 1 mps 660 mmHg 57%
    07:00 +11°C° 0 mm 1 mps 660 mmHg 52%
    08:00 +12°C° 0 mm 1 mps 661 mmHg 48%
    09:00 +13°C° 0 mm 2 mps 661 mmHg 44%
    10:00 +14°C° 0 mm 2 mps 661 mmHg 40%
    11:00 +15°C° 0 mm 2 mps 661 mmHg 37%
    12:00 +16°C° 0 mm 3 mps 661 mmHg 34%
    13:00 +17°C° 0 mm 3 mps 661 mmHg 31%
    14:00 +17°C° 0 mm 3 mps 661 mmHg 31%
    15:00 +17°C° 0 mm 3 mps 661 mmHg 30%
    16:00 +17°C° 0 mm 3 mps 661 mmHg 29%
    17:00 +16°C° 0 mm 2 mps 660 mmHg 32%
    18:00 +15°C° 0 mm 2 mps 660 mmHg 34%
    19:00 +14°C° 0 mm 1 mps 660 mmHg 36%
    20:00 +14°C° 0 mm 1 mps 660 mmHg 39%
    21:00 +13°C° 0 mm 1 mps 660 mmHg 41%
    22:00 +12°C° 0 mm 1 mps 660 mmHg 43%
    23:00 +12°C° 0 mm 1 mps 659 mmHg 45%

    Tomorrow, 30 April, Sunday

    Time Temperature Precipitation Wind Pressure Humidity
    00:00 +11°C° 0 mm 1 mps 659 mmHg 46%
    01:00 +11°C° 0 mm 1 mps 658 mmHg 48%
    02:00 +10°C° 0 mm 1 mps 658 mmHg 49%
    03:00 +10°C° 0 mm 1 mps 658 mmHg 51%
    04:00 +10°C° 0 mm 1 mps 658 mmHg 53%
    05:00 +11°C° 0 mm 1 mps 659 mmHg 48%
    06:00 +13°C° 0 mm 1 mps 659 mmHg 44%
    07:00 +14°C° 0 mm 1 mps 660 mmHg 39%
    08:00 +15°C° 0 mm 1 mps 660 mmHg 36%
    09:00 +17°C° 0 mm 2 mps 660 mmHg 32%
    10:00 +18°C° 0 mm 2 mps 661 mmHg 28%
    11:00 +19°C° 0 mm 3 mps 661 mmHg 26%
    12:00 +20°C° 0 mm 3 mps 660 mmHg 24%
    13:00 +21°C° 0 mm 4 mps 660 mmHg 22%
    14:00 +21°C° 0 mm 4 mps 660 mmHg 22%
    15:00 +21°C° 0 mm 4 mps 660 mmHg 22%
    16:00 +21°C° 0 mm 4 mps 659 mmHg 22%
    17:00 +19°C° 0 mm 3 mps 659 mmHg 26%
    18:00 +18°C° 0 mm 3 mps 659 mmHg 29%
    19:00 +17°C° 0 mm 2 mps 658 mmHg 32%
    20:00 +16°C° 0 mm 2 mps 658 mmHg 34%
    21:00 +15°C° 0 mm 2 mps 658 mmHg 36%
    22:00 +15°C° 0 mm 2 mps 658 mmHg 38%
    23:00 +14°C° 0 mm 2 mps 657 mmHg 39%

    Day after tomorrow, 1 May, Monday

    Time Temperature Precipitation Wind Pressure Humidity
    00:00 +14°C° 0 mm 2 mps 657 mmHg 40%
    01:00 +13°C° 0 mm 1 mps 656 mmHg 41%
    02:00 +13°C° 0 mm 1 mps 656 mmHg 42%
    03:00 +12°C° 0 mm 1 mps 656 mmHg 42%
    04:00 +12°C° 0 mm 1 mps 656 mmHg 42%
    05:00 +13°C° 0 mm 1 mps 656 mmHg 37%
    06:00 +15°C° 0 mm 1 mps 657 mmHg 32%
    07:00 +18°C° 0 mm 1 mps 658 mmHg 27%
    08:00 +18°C° 0 mm 2 mps 658 mmHg 23%
    09:00 +20°C° 0 mm 2 mps 658 mmHg 20%
    10:00 +21°C° 0 mm 3 mps 659 mmHg 16%
    11:00 +22°C° 0 mm 3 mps 658 mmHg 16%
    12:00 +24°C° 0 mm 3 mps 658 mmHg 15%
    13:00 +25°C° 0 mm 3 mps 658 mmHg 14%
    14:00 +25°C° 0 mm 4 mps 658 mmHg 14%
    15:00 +25°C° 0 mm 4 mps 657 mmHg 15%
    16:00 +25°C° 0 mm 4 mps 657 mmHg 16%
    17:00 +22°C° 0 mm 3 mps 657 mmHg 19%
    18:00 +21°C° 0 mm 2 mps 657 mmHg 22%
    19:00 +19°C° 0 mm 2 mps 656 mmHg 25%
    20:00 +19°C° 0 mm 1 mps 656 mmHg 28%
    21:00 +19°C° 0 mm 1 mps 656 mmHg 31%
    22:00 +18°C° 0 mm 1 mps 656 mmHg 33%
    23:00 +16°C° 0 mm 1 mps 655 mmHg 34%

    2 May, Tuesday

    Time Temperature Precipitation Wind Pressure Humidity
    00:00 +15°C° 0 mm 0 mps 655 mmHg 35%
    01:00 +14°C° 0 mm 0 mps 655 mmHg 36%
    02:00 +14°C° 0 mm 0 mps 655 mmHg 36%
    03:00 +14°C° 0 mm 0 mps 654 mmHg 37%
    04:00 +13°C° 0 mm 0 mps 654 mmHg 37%
    05:00 +15°C° 0 mm 0 mps 655 mmHg 33%
    06:00 +16°C° 0 mm 0 mps 656 mmHg 30%
    07:00 +20°C° 0 mm 1 mps 657 mmHg 26%
    08:00 +20°C° 0 mm 1 mps 657 mmHg 24%
    09:00 +21°C° 0 mm 1 mps 657 mmHg 22%
    10:00 +22°C° 0 mm 1 mps 657 mmHg 20%
    11:00 +23°C° 0 mm 1 mps 657 mmHg 19%
    12:00 +23°C° 0 mm 1 mps 657 mmHg 18%
    13:00 +24°C° 0 mm 2 mps 657 mmHg 18%
    14:00 +24°C° 0 mm 2 mps 657 mmHg 18%
    15:00 +24°C° 0 mm 2 mps 657 mmHg 18%
    16:00 +24°C° 0 mm 2 mps 657 mmHg 18%
    17:00 +23°C° 0 mm 1 mps 657 mmHg 21%
    18:00 +21°C° 0 mm 1 mps 657 mmHg 25%
    19:00 +20°C° 0 mm 1 mps 656 mmHg 28%
    20:00 +19°C° 0 mm 1 mps 656 mmHg 29%
    21:00 +19°C° 0 mm 1 mps 656 mmHg 30%
    22:00 +18°C° 0 mm 1 mps 656 mmHg 31%
    23:00 +16°C° 0 mm 1 mps 656 mmHg 31%

    3 May, Wednesday

    Time Temperature Precipitation Wind Pressure Humidity
    00:00 +16°C° 0 mm 1 mps 655 mmHg 32%
    01:00 +15°C° 0 mm 1 mps 655 mmHg 33%
    02:00 +15°C° 0 mm 1 mps 655 mmHg 34%
    03:00 +14°C° 0 mm 1 mps 655 mmHg 36%
    04:00 +14°C° 0 mm 1 mps 655 mmHg 37%
    05:00 +15°C° 0 mm 1 mps 656 mmHg 33%
    06:00 +18°C° 0 mm 1 mps 656 mmHg 29%
    07:00 +20°C° 0 mm 1 mps 657 mmHg 26%
    08:00 +21°C° 0 mm 1 mps 657 mmHg 24%
    09:00 +22°C° 0 mm 1 mps 658 mmHg 22%
    10:00 +23°C° 0 mm 1 mps 658 mmHg 20%
    11:00 +24°C° 0 mm 2 mps 658 mmHg 19%
    12:00 +25°C° 0 mm 2 mps 657 mmHg 18%
    13:00 +26°C° 0 mm 2 mps 657 mmHg 17%
    14:00 +26°C° 0 mm 3 mps 657 mmHg 17%
    15:00 +26°C° 0 mm 3 mps 657 mmHg 17%
    16:00 +26°C° 0 mm 3 mps 656 mmHg 17%
    17:00 +24°C° 0 mm 3 mps 656 mmHg 20%
    18:00 +23°C° 0 mm 2 mps 656 mmHg 23%
    19:00 +20°C° 0 mm 2 mps 656 mmHg 25%
    20:00 +20°C° 0 mm 1 mps 656 mmHg 27%
    21:00 +20°C° 0 mm 1 mps 656 mmHg 28%
    22:00 +19°C° 0 mm 1 mps 655 mmHg 29%
    23:00 +18°C° 0 mm 1 mps 655 mmHg 29%

    4 May, Thursday

    Time Temperature Precipitation Wind Pressure Humidity
    00:00 +18°C° 0 mm 1 mps 655 mmHg 29%
    01:00 +16°C° 0 mm 1 mps 654 mmHg 28%
    02:00 +15°C° 0 mm 1 mps 654 mmHg 29%
    03:00 +15°C° 0 mm 1 mps 654 mmHg 30%
    04:00 +14°C° 0 mm 1 mps 654 mmHg 31%
    05:00 +16°C° 0 mm 1 mps 655 mmHg 28%
    06:00 +19°C° 0 mm 1 mps 656 mmHg 24%
    07:00 +20°C° 0 mm 1 mps 657 mmHg 21%
    08:00 +21°C° 0 mm 1 mps 657 mmHg 19%
    09:00 +23°C° 0 mm 1 mps 658 mmHg 17%
    10:00 +24°C° 0 mm 2 mps 658 mmHg 14%
    11:00 +25°C° 0 mm 2 mps 658 mmHg 13%
    12:00 +25°C° 0 mm 2 mps 658 mmHg 12%
    13:00 +26°C° 0 mm 3 mps 658 mmHg 11%
    14:00 +26°C° 0 mm 2 mps 657 mmHg 11%
    15:00 +26°C° 0 mm 2 mps 657 mmHg 10%
    16:00 +26°C° 0 mm 2 mps 657 mmHg 10%
    17:00 +24°C° 0 mm 2 mps 657 mmHg 13%
    18:00 +23°C° 0 mm 2 mps 657 mmHg 15%
    19:00 +20°C° 0 mm 2 mps 656 mmHg 17%
    20:00 +19°C° 0 mm 2 mps 656 mmHg 20%
    21:00 +19°C° 0 mm 2 mps 656 mmHg 22%
    22:00 +18°C° 0 mm 2 mps 656 mmHg 24%
    23:00 +18°C° 0 mm 2 mps 656 mmHg 26%
    Show more